[[{"header":{"parameterUnit":"m.s-1","parameterCategory":1,"la1":30.2991,"la2":30.254,"lo1":-89.0895,"lo2":-89.0444,"dy":0.0017,"dx":0.0017,"nx":28,"ny":28,"refTime":"2024-02-11T09:00:00:Z","depth":0,"parameterNumber":2,"parameterNumberName":"U-component_of_WINDS"},"data":[0,0,0,0,0,0,0,0,0,0,0,0,0,0,0,0,0,0,0,0,0,0,0,0,0,0,0,0,0,0,0,0,0,0,0,0,0,0,0,0,0,0,0,0,0,0,0,0,0,0,0,0,0,0,0,0,0,0,-1.6614,-1.6615,0,-1.6721,-1.6723,-1.6724,-1.6784,-1.6784,-1.6784,-1.6784,-1.6892,-1.6895,-1.6898,0,0,0,0,0,0,0,0,0,0,0,0,0,-1.646,-1.6462,-1.6614,-1.6616,-1.6617,-1.6721,-1.6723,-1.6724,-1.6784,-1.6784,-1.6784,-1.6784,-1.6891,-1.6895,-1.6898,0,0,0,0,0,0,0,0,0,0,0,0,0,-1.6543,-1.6463,-1.6614,-1.6659,-1.6664,-1.6721,-1.6723,-1.6724,-1.6784,-1.6784,-1.6784,-1.6784,-1.689,-1.6894,-1.6898,-1.6918,0,0,-1.6911,-1.6912,0,0,0,0,0,0,0,0,-1.6538,-1.6548,-1.6651,-1.6656,-1.6662,-1.6739,-1.6708,-1.6789,-1.6784,-1.6738,-1.6784,-1.6785,-1.6841,-1.6849,-1.6869,-1.6923,-1.6927,-1.6911,-1.6913,-1.6915,-1.6916,0,0,0,0,0,0,0,-1.6532,-1.6544,-1.6657,-1.6653,-1.6659,-1.6674,-1.6686,-1.6724,-1.6787,-1.6742,-1.6747,-1.6759,-1.6844,-1.6865,-1.6872,-1.6929,-1.6911,-1.6915,-1.6917,-1.6919,-1.7003,-1.7003,0,0,0,0,0,0,-1.6519,-1.6539,-1.6653,-1.666,-1.6599,-1.6676,-1.669,-1.6714,-1.6787,-1.6798,-1.6758,-1.6761,-1.6858,-1.6867,-1.6876,-1.6903,-1.6915,-1.6919,-1.6921,-1.7003,-1.7003,-1.7003,0,0,0,0,0,0,-1.6516,-1.6529,-1.6649,-1.6601,-1.6617,-1.6679,-1.6706,-1.6716,-1.6737,-1.6799,-1.681,-1.6768,-1.6858,-1.687,-1.6907,-1.6907,-1.6921,-1.6925,-1.7004,-1.7003,-1.7003,-1.6956,0,0,0,0,0,0,-1.6511,-1.6527,-1.6536,-1.66,-1.6619,-1.6678,-1.6706,-1.6718,-1.6744,-1.6748,-1.6811,-1.6821,-1.6859,-1.69,-1.6911,-1.6913,-1.6928,-1.7004,-1.7003,-1.7003,-1.6958,-1.6955,-1.6951,0,0,0,0,0,-1.6505,-1.6518,-1.6536,-1.6549,-1.6631,-1.6678,-1.6689,-1.6733,-1.6744,-1.6752,-1.6792,-1.6819,-1.6905,-1.6904,-1.6916,-1.6919,-1.7004,-1.7004,-1.7003,-1.696,-1.6955,-1.6952,0,0,0,0,0,0,-1.6452,-1.6528,-1.6548,-1.6582,-1.6623,-1.6688,-1.6701,-1.6727,-1.6766,-1.6769,-1.6821,-1.6835,-1.6866,-1.6897,-1.6893,-1.6941,-1.6958,-1.696,-1.692,-1.6917,-1.6913,-1.6905,-1.6931,0,0,0,0,0,-1.6444,-1.6476,-1.6541,-1.6565,-1.6584,-1.6639,-1.6661,-1.6691,-1.6736,-1.6754,-1.6796,-1.6838,-1.6874,-1.6897,-1.6934,-1.6963,-1.6977,-1.6971,-1.6968,-1.6965,-1.6966,-1.6982,-1.698,-1.7002,-1.7002,-1.7002,0,0,-1.6428,-1.6474,-1.6491,-1.6555,-1.6591,-1.6622,-1.6653,-1.6686,-1.6709,-1.6758,-1.6796,-1.6828,-1.6878,-1.6911,-1.6927,-1.6937,-1.6963,-1.6964,-1.6961,-1.6964,-1.6982,-1.698,-1.6978,-1.7001,-1.7001,-1.7001,0,0,-1.6416,-1.6454,-1.6477,-1.6512,-1.6565,-1.6602,-1.6607,-1.6668,-1.6691,-1.673,-1.6767,-1.6796,-1.6858,-1.6892,-1.6917,-1.6916,-1.6942,-1.6927,-1.6909,-1.6925,-1.6923,-1.6922,-1.6921,-1.692,-1.6928,-1.6928,-1.6927,0,-1.6389,-1.6439,-1.6486,-1.6516,-1.6543,-1.6589,-1.6613,-1.6644,-1.6707,-1.6724,-1.6734,-1.6813,-1.685,-1.689,-1.689,-1.6909,-1.6917,-1.692,-1.692,-1.6919,-1.6918,-1.6918,-1.6918,-1.6925,-1.6926,-1.6926,-1.6926,0,-1.6403,-1.6437,-1.645,-1.6509,-1.6537,-1.6564,-1.6615,-1.6638,-1.6665,-1.67,-1.6738,-1.6784,-1.683,-1.6842,-1.687,-1.6887,-1.6891,-1.691,-1.6927,-1.6913,-1.6914,-1.6914,-1.6922,-1.6923,-1.6923,-1.6924,0,0,-1.6361,-1.6445,-1.6449,-1.6476,-1.6538,-1.6564,-1.6593,-1.6639,-1.6657,-1.6699,-1.6723,-1.6774,-1.6792,-1.6821,-1.6852,-1.6866,-1.6861,-1.6883,-1.6885,-1.6877,-1.6882,-1.6867,-1.6866,-1.6879,-1.6879,-1.6879,-1.6878,0,-1.6356,-1.641,-1.6453,-1.649,-1.6522,-1.6565,-1.659,-1.663,-1.6663,-1.6694,-1.6731,-1.6766,-1.6787,-1.6804,-1.682,-1.6858,-1.6863,-1.6859,-1.6902,-1.6903,-1.6887,-1.6867,-1.6851,-1.6847,-1.6878,-1.6878,-1.6878,0,-1.6359,-1.6398,-1.6439,-1.6497,-1.6511,-1.6533,-1.6578,-1.6608,-1.6654,-1.6677,-1.6708,-1.6741,-1.6772,-1.6787,-1.683,-1.6827,-1.6847,-1.6868,-1.6869,-1.6874,-1.6889,-1.6871,-1.6847,-1.6846,-1.6879,-1.6879,-1.6879,0,-1.6322,-1.6386,-1.6418,-1.644,-1.6508,-1.6522,-1.6551,-1.6598,-1.6623,-1.6662,-1.6678,-1.6721,-1.6744,-1.6776,-1.6818,-1.6825,-1.6857,-1.6875,-1.6877,-1.6875,-1.6881,-1.688,-1.686,-1.6895,-1.6895,-1.6895,-1.6895,0,-1.6313,-1.6336,-1.6403,-1.6422,-1.6449,-1.6497,-1.6522,-1.6555,-1.6596,-1.6623,-1.6663,-1.6687,-1.6742,-1.6773,-1.6806,-1.6837,-1.6847,-1.6866,-1.6875,-1.6862,-1.686,-1.6876,-1.6877,-1.6895,-1.6895,-1.6895,-1.6895,0,-1.6277,-1.6322,-1.636,-1.6422,-1.6438,-1.6454,-1.6507,-1.6527,-1.6562,-1.6595,-1.6606,-1.6661,-1.6699,-1.6745,-1.6797,-1.682,-1.6847,-1.686,-1.6831,-1.6836,-1.6834,-1.6833,-1.6823,-1.6824,-1.6858,-1.6858,-1.6858,0,-1.6267,-1.6286,-1.6349,-1.637,-1.6398,-1.643,-1.6456,-1.6504,-1.6529,-1.6582,-1.6596,-1.6637,-1.6672,-1.673,-1.6775,-1.6815,-1.6829,-1.6823,-1.6835,-1.6822,-1.6828,-1.6826,-1.6828,-1.6819,-1.6818,-1.6818,-1.6818,0,-1.6246,-1.6267,-1.6302,-1.6345,-1.6374,-1.641,-1.6447,-1.6462,-1.6518,-1.6543,-1.6582,-1.6609,-1.6663,-1.6703,-1.6749,-1.6778,-1.6807,-1.6813,-1.6816,-1.6803,-1.6785,-1.6794,-1.6821,-1.6813,-1.6814,-1.6814,-1.6814,-1.6814,-1.6223,-1.6241,-1.6288,-1.6325,-1.6358,-1.6392,-1.6414,-1.6452,-1.6485,-1.6533,-1.6559,-1.6597,-1.6643,-1.6707,-1.6735,-1.6766,-1.6776,-1.6779,-1.678,-1.678,-1.6776,-1.678,-1.6774,-1.6775,-1.6775,-1.6775,-1.6775,0,-1.6202,-1.6234,-1.6268,-1.6319,-1.6348,-1.6373,-1.6416,-1.6438,-1.6471,-1.6511,-1.6545,-1.6589,-1.6628,-1.6675,-1.6717,-1.6732,-1.6746,-1.6741,-1.674,-1.6746,-1.6765,-1.6758,-1.6729,-1.6729,-1.6729,-1.6729,-1.6729,-1.6729,-1.6195,-1.6227,-1.6253,-1.6302,-1.6334,-1.6372,-1.6394,-1.6425,-1.6457,-1.6505,-1.6537,-1.6568,-1.661,-1.6655,-1.6692,-1.6704,-1.6718,-1.6709,-1.6725,-1.6741,-1.6745,-1.6749,-1.6743,-1.6711,-1.6711,-1.6704,-1.6704,-1.6704]},{"header":{"parameterUnit":"m.s-1","parameterCategory":1,"la1":30.2991,"la2":30.254,"lo1":-89.0895,"lo2":-89.0444,"dy":0.0017,"dx":0.0017,"nx":28,"ny":28,"refTime":"2024-02-11T09:00:00:Z","depth":0,"parameterNumber":3,"parameterNumberName":"V-component_of_WINDS"},"data":[0,0,0,0,0,0,0,0,0,0,0,0,0,0,0,0,0,0,0,0,0,0,0,0,0,0,0,0,0,0,0,0,0,0,0,0,0,0,0,0,0,0,0,0,0,0,0,0,0,0,0,0,0,0,0,0,0,0,5.9064,5.9065,0,5.9229,5.9231,5.9233,5.9257,5.9255,5.9254,5.9252,5.9415,5.942,5.9426,0,0,0,0,0,0,0,0,0,0,0,0,0,5.8763,5.8768,5.9063,5.9065,5.9068,5.9229,5.9231,5.9233,5.9257,5.9255,5.9253,5.9252,5.9413,5.9419,5.9426,0,0,0,0,0,0,0,0,0,0,0,0,0,5.8907,5.877,5.9063,5.9099,5.9104,5.9228,5.9231,5.9234,5.9257,5.9255,5.9253,5.9251,5.941,5.9419,5.9427,5.9525,0,0,5.9453,5.9457,0,0,0,0,0,0,0,0,5.8899,5.8918,5.9092,5.9097,5.9103,5.922,5.9184,5.9331,5.9258,5.9199,5.9252,5.925,5.9351,5.9364,5.94,5.9532,5.9539,5.9454,5.9459,5.9463,5.9465,0,0,0,0,0,0,0,5.8889,5.8911,5.9129,5.9094,5.9101,5.9105,5.9123,5.9212,5.9285,5.9204,5.9206,5.9226,5.9354,5.9392,5.9404,5.9541,5.9454,5.9461,5.9467,5.947,5.9763,5.9765,0,0,0,0,0,0,5.8873,5.8902,5.9123,5.9134,5.8993,5.9112,5.9133,5.9184,5.9284,5.9298,5.9227,5.9226,5.9378,5.9394,5.941,5.9532,5.9463,5.9471,5.9476,5.976,5.9764,5.9766,0,0,0,0,0,0,5.8867,5.8893,5.9117,5.9019,5.9048,5.912,5.9178,5.9189,5.9227,5.9302,5.9315,5.9254,5.9377,5.9398,5.9497,5.9538,5.9475,5.9482,5.9757,5.9761,5.9765,5.9775,0,0,0,0,0,0,5.8858,5.889,5.8929,5.902,5.9053,5.9203,5.9181,5.9194,5.9243,5.9243,5.933,5.9342,5.9377,5.9484,5.9505,5.9548,5.9489,5.9754,5.9759,5.9764,5.9772,5.9779,5.9786,0,0,0,0,0,5.8847,5.8924,5.8931,5.8957,5.9104,5.9205,5.9224,5.9264,5.9246,5.9285,5.9334,5.934,5.953,5.9494,5.9518,5.9564,5.9751,5.9758,5.9763,5.9769,5.9778,5.9786,0,0,0,0,0,0,5.8833,5.8936,5.8945,5.9054,5.9121,5.9209,5.9259,5.9272,5.9344,5.9341,5.9385,5.9405,5.9502,5.9543,5.9501,5.9664,5.9639,5.965,5.9634,5.9644,5.9651,5.9639,5.9496,0,0,0,0,0,5.8843,5.8919,5.9004,5.9091,5.9125,5.9186,5.9232,5.9258,5.9328,5.9355,5.9411,5.9477,5.9552,5.96,5.9673,5.9778,5.9797,5.9821,5.9828,5.9834,5.9843,5.9902,5.9914,5.9786,5.9786,5.9786,0,0,5.8864,5.8929,5.8974,5.909,5.9145,5.9221,5.921,5.929,5.9347,5.9367,5.9465,5.9508,5.9584,5.9687,5.9735,5.9724,5.9883,5.9841,5.9845,5.9851,5.991,5.9922,5.9933,5.979,5.9789,5.9789,0,0,5.894,5.8998,5.9078,5.9134,5.9218,5.9259,5.9278,5.9365,5.9395,5.9495,5.9512,5.9578,5.9706,5.9761,5.9805,5.9904,5.9912,5.9926,5.9963,6.002,6.003,6.004,6.0076,6.0088,5.9935,5.9935,5.9935,0,5.8955,5.9072,5.9117,5.9198,5.9248,5.9273,5.9354,5.9405,5.9508,5.9541,5.9528,5.969,5.9743,5.986,5.9884,5.9919,5.9942,5.9917,6.0026,6.0035,6.0045,6.008,6.0093,5.9936,5.9936,5.9936,5.9936,0,5.9086,5.9167,5.9221,5.9324,5.938,5.946,5.9515,5.9567,5.9588,5.963,5.9731,5.9795,5.9883,5.9912,5.9932,6.0032,6.0023,6.0017,5.9992,6.0057,6.0091,6.0105,5.9938,5.9937,5.9937,5.9937,0,0,5.9158,5.9286,5.9305,5.9352,5.9448,5.951,5.9591,5.9679,5.9723,5.9793,5.9862,5.997,5.9966,6.0017,6.0043,6.0093,6.0169,6.0082,6.0084,6.0096,6.0284,6.0288,6.0303,6.0175,6.0178,6.018,6.0278,0,5.9247,5.9395,5.9438,5.9562,5.9638,5.9663,5.9734,5.9799,5.984,5.9909,5.9953,6.003,6.0019,6.005,6.0101,6.0149,6.0207,6.0142,6.0239,6.0241,6.022,6.0321,6.0325,6.0414,6.0291,6.0293,6.0295,0,5.937,5.9446,5.9579,5.9666,5.97,5.9763,5.9848,5.9913,5.9988,6.0014,6.0071,6.0094,6.0178,6.0148,6.0265,6.022,6.0262,6.0291,6.0296,6.0307,6.0273,6.0335,6.0444,6.0457,6.0316,6.0314,6.0313,0,5.941,5.9545,5.9643,5.9682,5.9787,5.9831,5.9875,5.9948,5.9999,6.0072,6.0105,6.0186,6.023,6.0292,6.0335,6.0309,6.0448,6.0422,6.0472,6.0471,6.05,6.0497,6.0618,6.0525,6.0525,6.0525,6.0525,0,5.9505,5.9586,5.9663,5.9723,5.9813,5.9861,5.9949,5.9994,6.0059,6.0127,6.0152,6.0215,6.0268,6.0338,6.0372,6.0463,6.0483,6.0506,6.0514,6.0504,6.0501,6.0532,6.0528,6.0529,6.0528,6.0527,6.0526,0,5.9566,5.9621,5.9729,5.982,5.9845,5.9907,5.9984,6.0043,6.0085,6.0171,6.0194,6.026,6.0344,6.0393,6.0497,6.052,6.0622,6.0627,6.0598,6.0602,6.065,6.0645,6.0795,6.0817,6.0709,6.071,6.0711,0,5.9623,5.9686,5.9785,5.9834,5.9881,5.9958,6.0011,6.006,6.0114,6.0205,6.0252,6.0338,6.0409,6.0541,6.0597,6.0677,6.0685,6.0732,6.0697,6.0686,6.0687,6.0683,6.069,6.0738,6.0739,6.0739,6.074,0,5.9719,5.9744,5.9821,5.9908,5.9971,6.004,6.0109,6.0147,6.0208,6.0266,6.0354,6.041,6.0518,6.0603,6.0688,6.0732,6.0746,6.0751,6.0767,6.0758,6.0739,6.0751,6.0616,6.0747,6.0746,6.0746,6.0745,6.0745,5.9781,5.9839,5.9918,6.0003,6.0061,6.0125,6.0186,6.0237,6.0312,6.0406,6.043,6.0521,6.0595,6.0712,6.0758,6.0829,6.0821,6.0844,6.085,6.0855,6.0857,6.0727,6.0845,6.0845,6.0844,6.0844,6.0844,0,5.9879,5.9932,6.001,6.0108,6.0174,6.0184,6.0262,6.0316,6.0398,6.0466,6.0537,6.0638,6.072,6.0784,6.0868,6.0913,6.0922,6.0934,6.0931,6.0942,6.0859,6.0837,6.0926,6.0926,6.0926,6.0926,6.0926,6.0926,5.9939,6.0038,6.0072,6.02,6.0251,6.0344,6.0388,6.0447,6.0502,6.0615,6.0685,6.0727,6.0793,6.0883,6.0959,6.0975,6.1006,6.1017,6.1034,6.0956,6.0947,6.0939,6.0919,6.1023,6.1023,6.1111,6.1112,6.1112]}]]